Regional Weather Roundup
Issued by NWS

Home | Current Version | Previous Version | Text Only | Print | Product List | Glossary Off
Versions: 1 2 3 4 5 6 7 8 9 10 11 12 13 14 15 16 17 18 19 20 21 22 23 24 25 26 27 28 29 30 31 32 33 34 35 36 37 38 39 40 41 42 43 44 45 46 47 48 49 50

000
ASUS43 KDMX 061607
RWRIA

WEATHER ROUNDUP FOR IOWA
NATIONAL WEATHER SERVICE DES MOINES IA
1100 AM CDT MON JUL 06 2015

NOTE: "FAIR" INDICATES FEW OR NO CLOUDS BELOW 12,000 FEET WITH NO
SIGNIFICANT WEATHER AND/OR OBSTRUCTIONS TO VISIBILITY.

* - THESE STATIONS ARE NOT NWS STATIONS...THUS NOT UNDER NWS
QUALITY CONTROL.  THEY ALSO DO NOT REPORT WEATHER SUCH
AS PRECIPITATION OR FOG.

IAZ001>003-012>014-020>022-031>034-043>046-061700-
   NORTHWEST IOWA

CITY           SKY/WX    TMP DP  RH WIND       PRES   REMARKS
CARROLL *        N/A     73  72  94 SW5       29.88S
CHEROKEE *     CLOUDY    72  72 100 CALM      29.89R
DENISON *      PTSUNNY   72  72 100 W7        29.89R FOG
LE MARS *      LGT RAIN  72  72 100 N8        29.91R
ORANGE CITY *  CLOUDY    70  66  88 N10G18    29.92R
SHELDON *      CLOUDY    72  72 100 N17       29.90R
SIOUX CITY     CLOUDY    74  69  85 NW9       29.89S
SPENCER        CLOUDY    72  67  84 NW9       29.90R
STORM LAKE *   CLOUDY    72  70  94 S6        29.91R
$$

IAZ055>058-069>071-079>083-090>094-061700-
   SOUTHWEST IOWA

CITY           SKY/WX    TMP DP  RH WIND       PRES   REMARKS
ATLANTIC *     LGT RAIN  75  72  88 SE5       29.89S
AUDUBON *      MOSUNNY   75  70  83 CALM      29.90R
CLARINDA *     DRIZZLE   79  75  89 CALM      29.89S HX  82
COUNCIL BLFS * PTSUNNY   73  72  94 CALM      29.91R
CRESTON *      PTSUNNY   77  73  88 W12       29.92R
HARLAN  *      CLOUDY    73  73 100 S8        29.92S
LAMONI           N/A     79  73  82 SW12      29.89F HX  82
RED OAK *        N/A     75  73  94 NE6       29.89F
SHENANDOAH *   MOSUNNY   77  75  94 NE5       29.88F
$$

IAZ047>049-059>061-072>074-084-061700-
   CENTRAL IOWA

CITY           SKY/WX    TMP DP  RH WIND       PRES   REMARKS
AMES             N/A     73  71  93 S10       29.86F
ANKENY *       PTSUNNY   75  73  94 SE7       29.85F
CHARITON *     MOSUNNY   79  73  83 S9        29.88F HX  82
DES MOINES     CLOUDY    78  72  81 E7        29.84F HX  80
GRINNELL*        N/A     72  70  94 SE8       29.89F
KNOXVILLE *    CLOUDY    77  72  83 SE7       29.87F
MARSHALLTOWN   LGT RAIN  73  70  90 S10       29.87R
PELLA *        PTSUNNY   75  75 100 S6        29.89F
PERRY *        LGT RAIN  75  73  94 SW3       29.87S
$$

IAZ004>006-015-016-023>025-035-036-061700-
   NORTH CENTRAL IOWA

CITY           SKY/WX    TMP DP  RH WIND       PRES   REMARKS
ALGONA *       PTSUNNY   72  70  94 SW3       29.88R FOG
CLARION *      MOSUNNY   73  70  88 SW8       29.85F
ESTHERVILLE    LGT RAIN  70  68  93 W10       29.89R
FORT DODGE *     N/A     73  70  88 SW6       29.87F
MASON CITY     PTSUNNY   74  69  85 S9        29.86F
FOREST CITY *  PTSUNNY   70  70 100 SW6       29.86S
IOWA FALLS *   PTSUNNY   72  70  94 SE7       29.87S
$$

IAZ007>011-017>019-026>030-037>042-050>054-066-061700-
   NORTHEAST IOWA

CITY           SKY/WX    TMP DP  RH WIND       PRES   REMARKS
CEDAR RAPIDS   LGT RAIN  71  71 100 SE12      29.88F FOG
CHARLES CITY * SUNNY     72  72 100 SW8       29.86R
CLINTON *        N/A     73  70  88 NW5       29.98R
DECORAH *        N/A    N/A N/A N/A MISG        N/A
DUBUQUE        LGT RAIN  71  71 100 SW6       29.94F FOG
MONTICELLO *     N/A     72  72 100 SE5       29.90F FOG
OELWEIN *        N/A    N/A N/A N/A SE8       29.85F
WATERLOO       PTSUNNY   71  70  96 S10       29.84S
$$

IAZ064-065-067-068-078-061700-
   EAST CENTRAL IOWA

CITY           SKY/WX    TMP DP  RH WIND       PRES   REMARKS
DAVENPORT      PTSUNNY   75  70  84 W10       29.95S
IOWA CITY      LGT RAIN  72  71  97 SE9       29.90F FOG
MT. PLEASANT * CLOUDY    79  72  78 S3        29.94S HX  82
MUSCATINE *    PTSUNNY   72  70  94 CALM      29.93F
QUAD CITIES    PTSUNNY   79  71  76 W12       29.94R HX  82
$$

IAZ062-063-075>077-085>089-095>099-061700-
   SOUTHEAST IOWA

CITY           SKY/WX    TMP DP  RH WIND       PRES   REMARKS
BURLINGTON       N/A     78  73  84 SW10      29.94R HX  81
FAIRFIELD *    CLOUDY    75  70  83 SE7       29.92F
FORT MADISON * SUNNY     77  72  83 S7        29.95S
KEOKUK *       SUNNY     77  73  88 S12       29.93S
OSKALOOSA *    CLOUDY    73  72  94 S6        29.90S
CENTERVILLE *  SUNNY     77  72  83 S10       29.91F
OTTUMWA          N/A     77  72  84 SE5       29.89F
WASHINGTON *   PTSUNNY   73  72  94 SE6       29.93F FOG
$$

ABBREVIATIONS USED IN REMARKS
   TC - TEMPERATURES IN CELSIUS
  WCI - WIND CHILL INDEX
   HX - HEAT INDEX
  VSB - VISIBILITY
$$



USA.gov is the U.S. government's official web portal to all federal, state and local government web resources and services.